When you browse on this site, cookies collect data to enhance your experience and personalize the content and advertising you see.
Visit our Privacy Policy to learn more. By continuing to use the site, you agree to this use of cookies and data.
  • In Österreich
  • Länderverzeichnis
  • Für 7 Tage
  • Wassertemperatur
  • Wetterkarte
  • News
  • Widgets
  • user-avatar
    Anmelden

    Stündliche Wetter Progreso de Obregón

    Heute, 6 Juni, Samstag

    Zeit Temperatur Niederschläge Wind Luftdruck Luftfeuchtigkeit
    00:00 +16°C° 0 mm 1 m/S 602 mmHg 93%
    01:00 +14°C° 0 mm 0 m/S 601 mmHg 94%
    02:00 +14°C° 0 mm 0 m/S 600 mmHg 95%
    03:00 +14°C° 0 mm 0 m/S 601 mmHg 95%
    04:00 +13°C° 0 mm 0 m/S 601 mmHg 94%
    05:00 +14°C° 0 mm 1 m/S 601 mmHg 94%
    06:00 +18°C° 0 mm 1 m/S 602 mmHg 82%
    07:00 +18°C° 0 mm 0 m/S 603 mmHg 69%
    08:00 +20°C° 0 mm 0 m/S 604 mmHg 57%
    09:00 +24°C° 0 mm 1 m/S 604 mmHg 49%
    10:00 +26°C° 0 mm 2 m/S 605 mmHg 41%
    11:00 +27°C° 0 mm 3 m/S 605 mmHg 33%
    12:00 +28°C° 0 mm 3 m/S 605 mmHg 31%
    13:00 +29°C° 0 mm 4 m/S 604 mmHg 29%
    14:00 +30°C° 0 mm 5 m/S 604 mmHg 27%
    15:00 +28°C° 0 mm 5 m/S 603 mmHg 34%
    16:00 +27°C° 0 mm 6 m/S 603 mmHg 40%
    17:00 +26°C° 0 mm 6 m/S 602 mmHg 46%
    18:00 +23°C° 0.1 mm 5 m/S 602 mmHg 57%
    19:00 +21°C° 0.1 mm 3 m/S 602 mmHg 68%
    20:00 +19°C° 0.1 mm 2 m/S 602 mmHg 79%
    21:00 +19°C° 0 mm 1 m/S 602 mmHg 83%
    22:00 +19°C° 0 mm 1 m/S 602 mmHg 86%
    23:00 +18°C° 0 mm 1 m/S 602 mmHg 90%

    Morgen, 7 Juni, Sonntag

    Zeit Temperatur Niederschläge Wind Luftdruck Luftfeuchtigkeit
    00:00 +18°C° 0 mm 1 m/S 602 mmHg 90%
    01:00 +18°C° 0 mm 1 m/S 601 mmHg 90%
    02:00 +16°C° 0 mm 0 m/S 601 mmHg 89%
    03:00 +16°C° 0 mm 0 m/S 601 mmHg 88%
    04:00 +16°C° 0 mm 0 m/S 601 mmHg 86%
    05:00 +16°C° 0 mm 0 m/S 601 mmHg 84%
    06:00 +18°C° 0 mm 0 m/S 602 mmHg 74%
    07:00 +20°C° 0 mm 0 m/S 603 mmHg 63%
    08:00 +23°C° 0 mm 1 m/S 603 mmHg 53%
    09:00 +25°C° 0 mm 1 m/S 604 mmHg 47%
    10:00 +27°C° 0 mm 2 m/S 604 mmHg 41%
    11:00 +29°C° 0 mm 3 m/S 605 mmHg 36%
    12:00 +29°C° 0 mm 3 m/S 604 mmHg 35%
    13:00 +29°C° 0 mm 3 m/S 603 mmHg 35%
    14:00 +29°C° 0 mm 4 m/S 603 mmHg 35%
    15:00 +28°C° 0.1 mm 3 m/S 603 mmHg 40%
    16:00 +27°C° 0.1 mm 3 m/S 602 mmHg 44%
    17:00 +26°C° 0.1 mm 3 m/S 602 mmHg 49%
    18:00 +24°C° 0.7 mm 2 m/S 602 mmHg 57%
    19:00 +23°C° 0.7 mm 1 m/S 602 mmHg 65%
    20:00 +19°C° 0.7 mm 0 m/S 602 mmHg 73%
    21:00 +19°C° 0 mm 0 m/S 602 mmHg 75%
    22:00 +18°C° 0 mm 0 m/S 602 mmHg 76%
    23:00 +18°C° 0 mm 0 m/S 601 mmHg 78%

    übermorgen, 8 Juni, Montag

    Zeit Temperatur Niederschläge Wind Luftdruck Luftfeuchtigkeit
    00:00 +17°C° 0 mm 0 m/S 601 mmHg 78%
    01:00 +17°C° 0 mm 0 m/S 601 mmHg 78%
    02:00 +19°C° 0 mm 1 m/S 601 mmHg 78%
    03:00 +18°C° 0 mm 1 m/S 601 mmHg 79%
    04:00 +18°C° 0 mm 1 m/S 601 mmHg 79%
    05:00 +18°C° 0 mm 1 m/S 601 mmHg 79%
    06:00 +20°C° 0 mm 1 m/S 602 mmHg 70%
    07:00 +22°C° 0 mm 1 m/S 603 mmHg 61%
    08:00 +25°C° 0 mm 2 m/S 604 mmHg 51%
    09:00 +27°C° 0 mm 2 m/S 605 mmHg 45%
    10:00 +28°C° 0 mm 3 m/S 605 mmHg 39%
    11:00 +30°C° 0 mm 4 m/S 605 mmHg 32%
    12:00 +32°C° 0 mm 4 m/S 605 mmHg 30%
    13:00 +32°C° 0 mm 4 m/S 604 mmHg 28%
    14:00 +32°C° 0 mm 4 m/S 604 mmHg 26%
    15:00 +32°C° 0 mm 4 m/S 604 mmHg 28%
    16:00 +30°C° 0 mm 4 m/S 603 mmHg 30%
    17:00 +30°C° 0 mm 3 m/S 603 mmHg 32%
    18:00 +27°C° 0.4 mm 3 m/S 603 mmHg 46%
    19:00 +25°C° 0.4 mm 2 m/S 603 mmHg 60%
    20:00 +22°C° 0.4 mm 1 m/S 602 mmHg 73%
    21:00 +22°C° 0.2 mm 1 m/S 603 mmHg 73%
    22:00 +21°C° 0.2 mm 1 m/S 603 mmHg 73%
    23:00 +21°C° 0.2 mm 1 m/S 603 mmHg 73%

    9 Juni, Dienstag

    Zeit Temperatur Niederschläge Wind Luftdruck Luftfeuchtigkeit
    00:00 +21°C° 0 mm 1 m/S 602 mmHg 74%
    01:00 +20°C° 0 mm 1 m/S 602 mmHg 74%
    02:00 +20°C° 0 mm 1 m/S 602 mmHg 75%
    03:00 +19°C° 0 mm 1 m/S 602 mmHg 76%
    04:00 +19°C° 0 mm 1 m/S 602 mmHg 76%
    05:00 +19°C° 0 mm 1 m/S 602 mmHg 77%
    06:00 +21°C° 0 mm 1 m/S 603 mmHg 68%
    07:00 +23°C° 0 mm 1 m/S 604 mmHg 59%
    08:00 +25°C° 0 mm 1 m/S 605 mmHg 50%
    09:00 +27°C° 0 mm 2 m/S 605 mmHg 42%
    10:00 +29°C° 0 mm 3 m/S 606 mmHg 33%
    11:00 +32°C° 0 mm 4 m/S 606 mmHg 24%
    12:00 +32°C° 0 mm 5 m/S 606 mmHg 23%
    13:00 +33°C° 0 mm 6 m/S 606 mmHg 22%
    14:00 +34°C° 0 mm 7 m/S 605 mmHg 20%
    15:00 +32°C° 0 mm 7 m/S 605 mmHg 23%
    16:00 +30°C° 0 mm 7 m/S 604 mmHg 26%
    17:00 +29°C° 0 mm 8 m/S 604 mmHg 28%
    18:00 +27°C° 0 mm 6 m/S 603 mmHg 37%
    19:00 +23°C° 0 mm 4 m/S 603 mmHg 46%
    20:00 +21°C° 0 mm 2 m/S 603 mmHg 55%
    21:00 +21°C° 0 mm 1 m/S 603 mmHg 62%
    22:00 +20°C° 0 mm 1 m/S 603 mmHg 68%
    23:00 +20°C° 0 mm 1 m/S 603 mmHg 75%

    10 Juni, Mittwoch

    Zeit Temperatur Niederschläge Wind Luftdruck Luftfeuchtigkeit
    00:00 +19°C° 0 mm 1 m/S 603 mmHg 78%
    01:00 +19°C° 0 mm 1 m/S 603 mmHg 82%
    02:00 +16°C° 0 mm 0 m/S 602 mmHg 85%
    03:00 +16°C° 0 mm 0 m/S 602 mmHg 87%
    04:00 +16°C° 0 mm 0 m/S 602 mmHg 88%
    05:00 +15°C° 0 mm 0 m/S 603 mmHg 89%
    06:00 +19°C° 0 mm 1 m/S 603 mmHg 77%
    07:00 +20°C° 0 mm 2 m/S 604 mmHg 65%
    08:00 +23°C° 0 mm 2 m/S 605 mmHg 53%
    09:00 +25°C° 0 mm 3 m/S 606 mmHg 45%
    10:00 +26°C° 0 mm 4 m/S 606 mmHg 38%
    11:00 +28°C° 0 mm 5 m/S 606 mmHg 30%
    12:00 +28°C° 0 mm 6 m/S 606 mmHg 32%
    13:00 +28°C° 0 mm 7 m/S 606 mmHg 35%
    14:00 +28°C° 0 mm 8 m/S 605 mmHg 37%
    15:00 +27°C° 0 mm 8 m/S 605 mmHg 43%
    16:00 +24°C° 0 mm 8 m/S 604 mmHg 49%
    17:00 +23°C° 0 mm 8 m/S 604 mmHg 56%
    18:00 +21°C° 0 mm 6 m/S 604 mmHg 63%
    19:00 +20°C° 0 mm 4 m/S 604 mmHg 71%
    20:00 +19°C° 0 mm 3 m/S 604 mmHg 79%
    21:00 +18°C° 0 mm 2 m/S 604 mmHg 82%
    22:00 +17°C° 0 mm 2 m/S 604 mmHg 86%
    23:00 +18°C° 0 mm 1 m/S 604 mmHg 90%

    11 Juni, Donnerstag

    Zeit Temperatur Niederschläge Wind Luftdruck Luftfeuchtigkeit
    00:00 +16°C° 0 mm 1 m/S 604 mmHg 91%
    01:00 +16°C° 0 mm 1 m/S 604 mmHg 93%
    02:00 +16°C° 0 mm 1 m/S 603 mmHg 94%
    03:00 +15°C° 0 mm 1 m/S 603 mmHg 95%
    04:00 +15°C° 0 mm 1 m/S 603 mmHg 96%
    05:00 +15°C° 0 mm 1 m/S 603 mmHg 96%
    06:00 +16°C° 0 mm 1 m/S 604 mmHg 86%
    07:00 +19°C° 0 mm 1 m/S 605 mmHg 77%
    08:00 +19°C° 0 mm 2 m/S 605 mmHg 67%
    09:00 +21°C° 0 mm 3 m/S 606 mmHg 60%
    10:00 +23°C° 0 mm 4 m/S 606 mmHg 52%
    11:00 +25°C° 0 mm 5 m/S 606 mmHg 45%
    12:00 +25°C° 0 mm 5 m/S 606 mmHg 46%
    13:00 +24°C° 0 mm 6 m/S 605 mmHg 47%
    14:00 +24°C° 0 mm 7 m/S 605 mmHg 48%
    15:00 +23°C° 0 mm 7 m/S 605 mmHg 52%
    16:00 +22°C° 0 mm 7 m/S 604 mmHg 56%
    17:00 +21°C° 0 mm 7 m/S 604 mmHg 61%
    18:00 +20°C° 0 mm 5 m/S 604 mmHg 68%
    19:00 +19°C° 0 mm 3 m/S 604 mmHg 74%
    20:00 +17°C° 0 mm 2 m/S 604 mmHg 81%
    21:00 +17°C° 0 mm 2 m/S 604 mmHg 85%
    22:00 +16°C° 0 mm 1 m/S 604 mmHg 89%
    23:00 +16°C° 0 mm 1 m/S 604 mmHg 92%
    Mehr zeigen